Location: Newark
(45.2500°N, 7.5833°E)
Time: 00:47:19
(UTC+00:00)

Transit 2A Rocket - All Passes

Search period start: 18 January 2020 00:00
Search period end: 28 January 2020 00:00
Orbit: 593 x 910 km, 66.7° (Epoch: 17 January)

Date Brightness Start Highest point End Pass type
(mag) Time Alt. Az. Time Alt. Az. Time Alt. Az.
18 Jan - 05:42:36 10° S 05:46:16 27° ESE 05:49:55 10° NE visible
18 Jan - 07:24:43 10° WSW 07:28:40 34° NW 07:32:39 10° NNE daylight
18 Jan - 14:22:15 10° NNW 14:26:45 42° NE 14:31:38 10° ESE daylight
18 Jan - 16:05:00 10° NW 16:09:12 29° WSW 16:13:42 10° S daylight
19 Jan - 05:01:31 10° SE 05:04:00 15° ESE 05:06:27 10° ENE visible
19 Jan - 06:41:45 10° SW 06:46:00 59° NW 06:50:18 10° NNE daylight
19 Jan - 08:28:08 10° NW 08:29:31 11° NNW 08:30:55 10° NNW daylight
19 Jan - 13:40:01 10° NNW 13:44:02 27° NE 13:48:20 10° ESE daylight
19 Jan - 15:22:07 10° NW 15:26:47 50° WSW 15:31:52 10° S daylight
20 Jan - 05:59:09 10° SSW 06:03:28 76° ESE 06:07:48 10° NE visible
20 Jan - 07:43:44 10° W 07:46:33 17° NW 07:49:23 10° N daylight
20 Jan - 12:57:56 10° N 13:01:12 18° NE 13:04:38 10° E daylight
20 Jan - 14:39:29 10° NNW 14:44:18 86° SW 14:49:34 10° SSE daylight
20 Jan - 16:24:24 10° W 16:26:14 12° WSW 16:28:08 10° SW daylight
21 Jan - 05:16:59 10° S 05:21:02 40° ESE 05:25:05 10° NE visible
21 Jan - 07:00:05 10° WSW 07:03:41 25° NW 07:07:20 10° NNE daylight
21 Jan - 12:16:11 10° N 12:18:14 13° NE 12:20:21 10° ENE daylight
21 Jan - 13:57:00 10° NNW 14:01:44 58° NE 14:06:52 10° SE daylight
21 Jan - 15:40:18 10° WNW 15:43:59 21° WSW 15:47:52 10° SSW daylight
22 Jan - 04:35:20 10° SSE 04:38:41 22° ESE 04:42:02 10° ENE visible
22 Jan - 06:16:52 10° WSW 06:20:57 41° NW 06:25:06 10° NNE visible
22 Jan - 13:14:40 10° NNW 13:19:04 36° NE 13:23:49 10° ESE daylight
22 Jan - 14:57:10 10° NW 15:01:38 36° WSW 15:06:25 10° S daylight
23 Jan - 03:54:48 10° SE 03:56:27 12° ESE 03:58:07 10° E visible
23 Jan - 05:34:02 10° SW 05:38:20 73° NW 05:42:41 10° NNE visible
23 Jan - 07:19:41 10° WNW 07:21:43 13° NW 07:23:45 10° N daylight
23 Jan - 12:32:28 10° N 12:36:19 24° NE 12:40:24 10° E daylight
23 Jan - 14:14:24 10° NW 14:19:11 61° WSW 14:24:25 10° SSE daylight
24 Jan - 04:51:34 10° SSW 04:55:49 61° ESE 05:00:06 10° NE visible
24 Jan - 06:35:38 10° W 06:38:46 19° NW 06:41:57 10° N daylight
24 Jan - 11:50:27 10° N 11:53:26 16° NE 11:56:32 10° ENE daylight
24 Jan - 13:31:49 10° NNW 13:36:40 81° ENE 13:41:58 10° SE daylight
24 Jan - 15:15:56 10° WNW 15:18:43 15° WSW 15:21:37 10° SW daylight
25 Jan - 04:09:34 10° S 04:13:26 33° ESE 04:17:18 10° NE visible
25 Jan - 05:52:09 10° WSW 05:55:57 30° NW 05:59:49 10° NNE visible
25 Jan - 11:08:57 10° NNE 11:10:26 11° NNE 11:11:56 10° NE daylight
25 Jan - 12:49:23 10° NNW 12:54:04 49° NE 12:59:09 10° SE daylight
25 Jan - 14:32:22 10° WNW 14:36:25 26° WSW 14:40:44 10° SSW daylight
26 Jan - 03:28:11 10° SSE 03:31:07 18° ESE 03:34:04 10° ENE visible
26 Jan - 05:09:04 10° SW 05:13:15 50° NW 05:17:30 10° NNE visible
26 Jan - 06:56:28 10° NW 06:56:55 10° NNW 06:57:22 10° NNW daylight
26 Jan - 12:07:06 10° NNW 12:11:22 31° NE 12:15:58 10° ESE daylight
26 Jan - 13:49:23 10° NW 13:54:02 43° WSW 13:59:04 10° S daylight
27 Jan - 04:26:22 10° SSW 04:30:40 89° NW 04:35:02 10° NNE visible
27 Jan - 06:11:24 10° WNW 06:13:54 15° NW 06:16:26 10° N visible
27 Jan - 11:24:56 10° N 11:28:34 21° NE 11:32:24 10° E daylight
27 Jan - 13:06:41 10° NW 13:11:34 74° WSW 13:16:53 10° SSE daylight
